Time,TemperatureF,DewpointF,PressureIn,WindDirection,WindDirectionDegrees,WindSpeedMPH,WindSpeedGustMPH,Humidity,HourlyPrecipIn,Conditions,Clouds,dailyrainin,SoftwareType,DateUTC
2013-06-26 00:00:00,69.5,61.9,29.97,West,270,2.9,2.9,77,0.00,,,0.00,WUHU216HW,2013-06-26 07:00:00,
2013-06-26 00:05:00,69.3,61.7,29.97,West,270,1.1,2.9,77,0.00,,,0.00,WUHU216HW,2013-06-26 07:05:00,
2013-06-26 00:10:00,69.3,61.7,29.97,West,270,0.0,1.3,77,0.00,,,0.00,WUHU216HW,2013-06-26 07:10:00,
2013-06-26 00:15:00,69.3,61.7,29.97,West,270,2.7,2.7,77,0.00,,,0.00,WUHU216HW,2013-06-26 07:15:00,
2013-06-26 00:20:00,69.1,61.6,29.97,West,270,1.1,2.7,77,0.00,,,0.00,WUHU216HW,2013-06-26 07:20:00,
2013-06-26 00:25:00,68.9,61.4,29.97,West,270,0.2,2.7,77,0.00,,,0.00,WUHU216HW,2013-06-26 07:25:00,
2013-06-26 00:30:00,68.9,61.4,29.97,WNW,293,1.1,2.2,77,0.00,,,0.00,WUHU216HW,2013-06-26 07:30:00,
2013-06-26 00:35:00,68.8,61.3,29.97,NNW,338,0.0,2.2,77,0.00,,,0.00,WUHU216HW,2013-06-26 07:35:00,
2013-06-26 00:40:00,68.8,61.7,29.97,North,0,0.0,0.9,78,0.00,,,0.00,WUHU216HW,2013-06-26 07:40:00,
2013-06-26 00:45:00,68.8,61.3,29.97,NW,315,0.0,0.0,77,0.00,,,0.00,WUHU216HW,2013-06-26 07:45:00,
2013-06-26 00:50:00,68.6,61.5,29.97,North,0,1.8,1.8,78,0.00,,,0.00,WUHU216HW,2013-06-26 07:50:00,
2013-06-26 00:55:00,68.4,61.3,29.97,NW,315,1.6,1.8,78,0.00,,,0.00,WUHU216HW,2013-06-26 07:55:00,
2013-06-26 01:00:00,68.2,61.1,29.97,NW,315,0.2,2.0,78,0.00,,,0.00,WUHU216HW,2013-06-26 08:00:00,
2013-06-26 01:05:00,68.0,61.0,29.97,NW,315,1.3,2.0,78,0.00,,,0.00,WUHU216HW,2013-06-26 08:05:00,
2013-06-26 01:10:00,68.0,61.4,29.96,West,270,0.0,1.6,79,0.00,,,0.00,WUHU216HW,2013-06-26 08:10:00,
2013-06-26 01:15:00,68.0,61.4,29.97,North,0,0.0,0.9,79,0.00,,,0.00,WUHU216HW,2013-06-26 08:15:00,
2013-06-26 01:20:00,68.0,61.4,29.97,North,0,0.0,0.7,79,0.00,,,0.00,WUHU216HW,2013-06-26 08:20:00,
2013-06-26 01:25:00,68.0,61.4,29.97,North,0,0.0,0.7,79,0.00,,,0.00,WUHU216HW,2013-06-26 08:25:00,
2013-06-26 01:30:00,67.9,61.2,29.97,North,0,0.0,0.0,79,0.00,,,0.00,WUHU216HW,2013-06-26 08:30:00,
2013-06-26 01:35:00,67.9,61.2,29.96,North,0,0.9,0.9,79,0.00,,,0.00,WUHU216HW,2013-06-26 08:35:00,
2013-06-26 01:40:00,67.9,61.2,29.96,North,0,0.0,0.9,79,0.00,,,0.00,WUHU216HW,2013-06-26 08:40:00,
2013-06-26 01:45:00,67.9,61.2,29.96,West,270,1.1,1.1,79,0.00,,,0.00,WUHU216HW,2013-06-26 08:45:00,
2013-06-26 01:50:00,67.7,61.0,29.96,SW,225,0.4,1.1,79,0.00,,,0.00,WUHU216HW,2013-06-26 08:50:00,
2013-06-26 01:55:00,67.7,61.0,29.96,WNW,293,0.7,1.1,79,0.00,,,0.00,WUHU216HW,2013-06-26 08:55:00,
2013-06-26 02:00:00,67.7,61.0,29.96,West,270,0.7,1.1,79,0.00,,,0.00,WUHU216HW,2013-06-26 09:00:00,
2013-06-26 02:05:00,67.7,61.4,29.96,West,270,0.9,1.1,80,0.00,,,0.00,WUHU216HW,2013-06-26 09:05:00,
2013-06-26 02:10:00,67.7,61.4,29.96,NW,315,0.4,1.3,80,0.00,,,0.00,WUHU216HW,2013-06-26 09:10:00,
2013-06-26 02:15:00,67.7,61.4,29.96,NW,315,0.0,1.3,80,0.00,,,0.00,WUHU216HW,2013-06-26 09:15:00,
2013-06-26 02:20:00,67.7,61.4,29.96,North,0,0.9,1.1,80,0.00,,,0.00,WUHU216HW,2013-06-26 09:20:00,
2013-06-26 02:25:00,67.7,61.4,29.96,NE,45,0.2,1.1,80,0.00,,,0.00,WUHU216HW,2013-06-26 09:25:00,
2013-06-26 02:30:00,67.7,61.4,29.96,NE,45,0.9,0.9,80,0.00,,,0.00,WUHU216HW,2013-06-26 09:30:00,
2013-06-26 02:35:00,67.7,61.4,29.96,NE,45,0.0,0.9,80,0.00,,,0.00,WUHU216HW,2013-06-26 09:35:00,
2013-06-26 02:45:00,67.7,61.4,29.96,NE,45,0.0,0.2,80,0.00,,,0.00,WUHU216HW,2013-06-26 09:45:00,
2013-06-26 02:50:00,67.7,61.4,29.96,NE,45,0.0,0.2,80,0.00,,,0.00,WUHU216HW,2013-06-26 09:50:00,
2013-06-26 02:55:00,67.7,61.4,29.96,NE,45,0.0,0.7,80,0.00,,,0.00,WUHU216HW,2013-06-26 09:55:00,
2013-06-26 03:00:00,67.7,61.4,29.96,West,270,1.1,2.5,80,0.00,,,0.00,WUHU216HW,2013-06-26 10:00:00,
2013-06-26 03:06:00,67.7,61.4,29.96,West,270,0.7,2.5,80,0.00,,,0.00,WUHU216HW,2013-06-26 10:06:00,
2013-06-26 03:11:00,67.7,61.4,29.96,West,270,1.8,1.8,80,0.00,,,0.00,WUHU216HW,2013-06-26 10:11:00,
2013-06-26 03:16:00,67.7,61.8,29.96,NNW,338,0.9,1.8,81,0.00,,,0.00,WUHU216HW,2013-06-26 10:16:00,
2013-06-26 03:21:00,67.7,61.8,29.96,NW,315,0.7,1.8,81,0.00,,,0.00,WUHU216HW,2013-06-26 10:21:00,
2013-06-26 03:26:00,67.5,61.6,29.96,NW,315,0.7,1.1,81,0.00,,,0.00,WUHU216HW,2013-06-26 10:26:00,
2013-06-26 03:31:00,67.5,61.6,29.96,West,270,0.9,1.1,81,0.00,,,0.00,WUHU216HW,2013-06-26 10:31:00,
2013-06-26 03:36:00,67.5,61.6,29.96,SW,225,1.3,2.2,81,0.00,,,0.00,WUHU216HW,2013-06-26 10:36:00,
2013-06-26 03:41:00,67.5,61.6,29.96,SW,225,2.5,2.5,81,0.00,,,0.00,WUHU216HW,2013-06-26 10:41:00,
2013-06-26 03:46:00,67.5,61.6,29.96,WSW,248,0.0,2.5,81,0.00,,,0.00,WUHU216HW,2013-06-26 10:46:00,
2013-06-26 03:51:00,67.5,61.6,29.96,WSW,248,0.0,2.5,81,0.00,,,0.00,WUHU216HW,2013-06-26 10:51:00,
2013-06-26 03:56:00,67.5,61.6,29.96,SSW,203,0.0,0.0,81,0.00,,,0.00,WUHU216HW,2013-06-26 10:56:00,
2013-06-26 04:01:00,67.3,61.4,29.97,South,180,0.0,0.0,81,0.00,,,0.00,WUHU216HW,2013-06-26 11:01:00,
2013-06-26 04:06:00,67.3,61.4,29.97,SE,135,0.0,0.0,81,0.00,,,0.00,WUHU216HW,2013-06-26 11:06:00,
2013-06-26 04:11:00,67.3,61.4,29.97,East,90,0.7,0.9,81,0.00,,,0.00,WUHU216HW,2013-06-26 11:11:00,
2013-06-26 04:16:00,67.3,61.4,29.97,ENE,68,0.4,0.9,81,0.00,,,0.00,WUHU216HW,2013-06-26 11:16:00,
2013-06-26 04:21:00,67.3,61.4,29.97,ENE,68,0.0,0.7,81,0.00,,,0.00,WUHU216HW,2013-06-26 11:21:00,
2013-06-26 04:26:00,67.3,61.4,29.97,ENE,68,0.0,0.7,81,0.00,,,0.00,WUHU216HW,2013-06-26 11:26:00,
2013-06-26 04:31:00,67.3,61.4,29.97,ENE,68,0.0,0.0,81,0.00,,,0.00,WUHU216HW,2013-06-26 11:31:00,
2013-06-26 04:36:00,67.1,61.5,29.97,ENE,68,0.0,0.0,82,0.00,,,0.00,WUHU216HW,2013-06-26 11:36:00,
2013-06-26 04:41:00,67.1,61.5,29.97,ENE,68,0.0,0.0,82,0.00,,,0.00,WUHU216HW,2013-06-26 11:41:00,
2013-06-26 04:46:00,67.1,61.5,29.97,ENE,68,0.0,0.0,82,0.00,,,0.00,WUHU216HW,2013-06-26 11:46:00,
2013-06-26 04:51:00,67.1,61.5,29.97,ENE,68,0.0,0.0,82,0.00,,,0.00,WUHU216HW,2013-06-26 11:51:00,
2013-06-26 04:56:00,67.1,61.5,29.97,ENE,68,0.0,0.0,82,0.00,,,0.00,WUHU216HW,2013-06-26 11:56:00,
2013-06-26 05:01:00,67.1,61.5,29.97,ENE,68,0.0,0.2,82,0.00,,,0.00,WUHU216HW,2013-06-26 12:01:00,
2013-06-26 05:06:00,67.1,61.5,29.98,ENE,68,0.0,0.2,82,0.00,,,0.00,WUHU216HW,2013-06-26 12:06:00,
2013-06-26 05:11:00,67.1,61.5,29.98,SE,135,0.0,0.4,82,0.00,,,0.00,WUHU216HW,2013-06-26 12:11:00,
2013-06-26 05:16:00,67.1,61.5,29.98,SE,135,0.0,0.4,82,0.00,,,0.00,WUHU216HW,2013-06-26 12:16:00,
2013-06-26 05:21:00,67.1,61.5,29.98,SE,135,0.0,0.0,82,0.00,,,0.00,WUHU216HW,2013-06-26 12:21:00,
2013-06-26 05:26:00,67.1,61.5,29.98,SE,135,0.0,0.0,82,0.00,,,0.00,WUHU216HW,2013-06-26 12:26:00,
2013-06-26 05:31:00,67.1,61.5,29.98,SE,135,0.0,0.0,82,0.00,,,0.00,WUHU216HW,2013-06-26 12:31:00,
2013-06-26 05:36:00,67.1,61.5,29.98,SE,135,0.0,0.0,82,0.00,,,0.00,WUHU216HW,2013-06-26 12:36:00,
2013-06-26 05:41:00,67.1,61.5,29.98,NE,45,0.7,0.7,82,0.00,,,0.00,WUHU216HW,2013-06-26 12:41:00,
2013-06-26 05:46:00,67.1,61.5,29.99,NE,45,0.0,0.7,82,0.00,,,0.00,WUHU216HW,2013-06-26 12:46:00,
2013-06-26 05:51:00,67.1,61.5,29.99,NE,45,0.4,0.7,82,0.00,,,0.00,WUHU216HW,2013-06-26 12:51:00,
2013-06-26 05:56:00,67.1,61.5,29.99,NNE,23,0.0,0.4,82,0.00,,,0.00,WUHU216HW,2013-06-26 12:56:00,
2013-06-26 06:01:00,67.0,61.3,29.99,NNE,23,0.0,0.4,82,0.00,,,0.00,WUHU216HW,2013-06-26 13:01:00,
2013-06-26 06:06:00,67.1,61.5,29.99,North,0,0.4,0.4,82,0.00,,,0.00,WUHU216HW,2013-06-26 13:06:00,
2013-06-26 06:11:00,67.1,61.5,30.00,NNW,338,0.0,0.4,82,0.00,,,0.00,WUHU216HW,2013-06-26 13:11:00,
2013-06-26 06:16:00,67.1,61.5,30.00,NW,315,0.0,0.2,82,0.00,,,0.00,WUHU216HW,2013-06-26 13:16:00,
2013-06-26 06:21:00,67.0,61.3,30.00,WSW,248,0.4,1.3,82,0.00,,,0.00,WUHU216HW,2013-06-26 13:21:00,
2013-06-26 06:26:00,67.1,61.5,30.00,WSW,248,1.1,2.0,82,0.00,,,0.00,WUHU216HW,2013-06-26 13:26:00,
2013-06-26 06:31:00,67.1,61.5,30.00,WSW,248,1.1,2.0,82,0.00,,,0.00,WUHU216HW,2013-06-26 13:31:00,
2013-06-26 06:36:00,67.0,61.3,30.01,WSW,248,1.6,1.6,82,0.00,,,0.00,WUHU216HW,2013-06-26 13:36:00,
2013-06-26 06:41:00,67.1,61.5,30.00,WSW,248,0.0,1.6,82,0.00,,,0.00,WUHU216HW,2013-06-26 13:41:00,
2013-06-26 06:46:00,67.1,61.5,30.01,West,270,1.1,1.1,82,0.00,,,0.00,WUHU216HW,2013-06-26 13:46:00,
2013-06-26 06:51:00,67.1,61.5,30.01,WSW,248,1.1,1.8,82,0.00,,,0.00,WUHU216HW,2013-06-26 13:51:00,
2013-06-26 06:56:00,67.1,61.5,30.01,WSW,248,0.9,2.5,82,0.00,,,0.00,WUHU216HW,2013-06-26 13:56:00,
2013-06-26 07:01:00,67.3,62.0,30.01,WSW,248,0.2,2.5,83,0.00,,,0.00,WUHU216HW,2013-06-26 14:01:00,
2013-06-26 07:06:00,67.3,62.0,30.01,West,270,1.1,1.1,83,0.00,,,0.00,WUHU216HW,2013-06-26 14:06:00,
2013-06-26 07:11:00,67.3,62.0,30.01,SW,225,0.2,2.2,83,0.00,,,0.00,WUHU216HW,2013-06-26 14:11:00,
2013-06-26 07:16:00,67.3,62.0,30.02,SW,225,0.9,2.2,83,0.00,,,0.00,WUHU216HW,2013-06-26 14:16:00,
2013-06-26 07:21:00,67.3,61.7,30.01,West,270,0.9,1.3,82,0.00,,,0.00,WUHU216HW,2013-06-26 14:21:00,
2013-06-26 07:26:00,67.3,61.7,30.01,SSW,203,2.0,2.0,82,0.00,,,0.00,WUHU216HW,2013-06-26 14:26:00,
2013-06-26 07:31:00,67.3,61.7,30.01,West,270,2.2,2.2,82,0.00,,,0.00,WUHU216HW,2013-06-26 14:31:00,
2013-06-26 07:36:00,67.3,61.7,30.02,WNW,293,1.6,2.2,82,0.00,,,0.00,WUHU216HW,2013-06-26 14:36:00,
2013-06-26 07:41:00,67.3,61.7,30.01,West,270,1.8,2.2,82,0.00,,,0.00,WUHU216HW,2013-06-26 14:41:00,
2013-06-26 07:46:00,67.3,62.0,30.02,SSW,203,0.0,2.2,83,0.00,,,0.00,WUHU216HW,2013-06-26 14:46:00,
2013-06-26 07:51:00,67.3,61.7,30.02,SW,225,0.4,2.2,82,0.00,,,0.00,WUHU216HW,2013-06-26 14:51:00,
2013-06-26 07:56:00,67.3,62.0,30.02,WSW,248,1.1,1.8,83,0.00,,,0.00,WUHU216HW,2013-06-26 14:56:00,
2013-06-26 08:01:00,67.5,61.8,30.02,WSW,248,0.0,1.8,82,0.00,,,0.00,WUHU216HW,2013-06-26 15:01:00,
2013-06-26 08:06:00,67.5,61.8,30.02,WSW,248,0.0,1.1,82,0.00,,,0.00,WUHU216HW,2013-06-26 15:06:00,
2013-06-26 08:11:00,67.5,61.8,30.02,SW,225,0.0,1.1,82,0.00,,,0.00,WUHU216HW,2013-06-26 15:11:00,
2013-06-26 08:16:00,67.7,62.0,30.02,West,270,1.1,2.9,82,0.00,,,0.00,WUHU216HW,2013-06-26 15:16:00,
2013-06-26 08:21:00,67.7,62.0,30.03,WNW,293,2.5,2.9,82,0.00,,,0.00,WUHU216HW,2013-06-26 15:21:00,
2013-06-26 08:26:00,67.7,62.0,30.03,WSW,248,1.1,2.5,82,0.00,,,0.00,WUHU216HW,2013-06-26 15:26:00,
2013-06-26 08:31:00,67.7,62.0,30.03,WSW,248,1.1,2.5,82,0.00,,,0.00,WUHU216HW,2013-06-26 15:31:00,
2013-06-26 08:36:00,67.9,62.2,30.03,West,270,0.0,2.5,82,0.00,,,0.00,WUHU216HW,2013-06-26 15:36:00,
2013-06-26 08:41:00,67.9,62.2,30.03,NW,315,2.2,2.5,82,0.00,,,0.00,WUHU216HW,2013-06-26 15:41:00,
2013-06-26 08:46:00,67.9,62.2,30.03,North,0,1.3,2.2,82,0.00,,,0.00,WUHU216HW,2013-06-26 15:46:00,
2013-06-26 08:51:00,67.9,62.2,30.03,NW,315,0.0,1.6,82,0.00,,,0.00,WUHU216HW,2013-06-26 15:51:00,
2013-06-26 08:56:00,67.9,62.2,30.03,ENE,68,0.4,1.3,82,0.00,,,0.00,WUHU216HW,2013-06-26 15:56:00,
2013-06-26 09:01:00,68.0,62.4,30.03,NNW,338,0.4,1.1,82,0.00,,,0.00,WUHU216HW,2013-06-26 16:01:00,
2013-06-26 09:06:00,68.0,62.4,30.03,NW,315,0.7,1.1,82,0.00,,,0.00,WUHU216HW,2013-06-26 16:06:00,
2013-06-26 09:11:00,68.0,62.4,30.03,South,180,0.4,0.7,82,0.00,,,0.00,WUHU216HW,2013-06-26 16:11:00,
2013-06-26 09:16:00,68.2,62.6,30.04,SSW,203,2.0,2.0,82,0.00,,,0.00,WUHU216HW,2013-06-26 16:16:00,
2013-06-26 09:21:00,68.6,62.9,30.03,South,180,1.6,2.0,82,0.00,,,0.00,WUHU216HW,2013-06-26 16:21:00,
2013-06-26 09:26:00,68.8,63.1,30.03,SW,225,0.4,1.6,82,0.00,,,0.00,WUHU216HW,2013-06-26 16:26:00,
2013-06-26 09:31:00,68.8,63.1,30.03,South,180,0.7,1.1,82,0.00,,,0.00,WUHU216HW,2013-06-26 16:31:00,
2013-06-26 09:36:00,69.1,63.4,30.03,SSW,203,1.3,1.3,82,0.00,,,0.00,WUHU216HW,2013-06-26 16:36:00,
2013-06-26 09:41:00,69.3,63.5,30.03,SW,225,0.4,1.3,82,0.00,,,0.00,WUHU216HW,2013-06-26 16:41:00,
2013-06-26 09:46:00,69.5,63.4,30.03,WSW,248,2.5,2.7,81,0.00,,,0.00,WUHU216HW,2013-06-26 16:46:00,
2013-06-26 09:51:00,69.8,63.7,30.03,SSW,203,1.8,2.7,81,0.00,,,0.00,WUHU216HW,2013-06-26 16:51:00,
2013-06-26 09:56:00,70.2,63.7,30.03,SSE,158,1.6,2.7,80,0.00,,,0.00,WUHU216HW,2013-06-26 16:56:00,
2013-06-26 10:01:00,70.6,64.1,30.03,SSW,203,1.6,1.6,80,0.00,,,0.00,WUHU216HW,2013-06-26 17:01:00,
2013-06-26 10:06:00,70.9,64.4,30.03,SW,225,2.0,2.0,80,0.00,,,0.00,WUHU216HW,2013-06-26 17:06:00,
2013-06-26 10:11:00,71.6,64.8,30.03,ESE,113,0.9,2.0,79,0.00,,,0.00,WUHU216HW,2013-06-26 17:11:00,
2013-06-26 10:16:00,72.0,64.8,30.03,WNW,293,1.6,2.2,78,0.00,,,0.00,WUHU216HW,2013-06-26 17:16:00,
2013-06-26 10:21:00,72.4,64.7,30.03,SW,225,2.5,2.5,77,0.00,,,0.00,WUHU216HW,2013-06-26 17:21:00,
2013-06-26 10:26:00,72.7,65.5,30.03,WSW,248,3.1,3.1,78,0.00,,,0.00,WUHU216HW,2013-06-26 17:26:00,
2013-06-26 10:31:00,72.9,65.7,30.03,SW,225,3.1,3.1,78,0.00,,,0.00,WUHU216HW,2013-06-26 17:31:00,
2013-06-26 10:36:00,73.4,66.3,30.03,SSW,203,2.0,3.6,78,0.00,,,0.00,WUHU216HW,2013-06-26 17:36:00,
2013-06-26 10:41:00,73.8,65.8,30.03,WNW,293,1.1,3.6,76,0.00,,,0.00,WUHU216HW,2013-06-26 17:41:00,
2013-06-26 10:46:00,74.2,65.8,30.03,SW,225,4.7,5.4,75,0.00,,,0.00,WUHU216HW,2013-06-26 17:46:00,
2013-06-26 10:51:00,74.3,65.9,30.03,SE,135,3.1,5.4,75,0.00,,,0.00,WUHU216HW,2013-06-26 17:51:00,
2013-06-26 10:56:00,74.9,66.4,30.03,SW,225,4.0,4.7,75,0.00,,,0.00,WUHU216HW,2013-06-26 17:56:00,
2013-06-26 11:01:00,75.1,66.3,30.03,West,270,5.4,5.4,74,0.00,,,0.00,WUHU216HW,2013-06-26 18:01:00,
2013-06-26 11:06:00,75.4,66.6,30.03,SE,135,1.8,5.4,74,0.00,,,0.00,WUHU216HW,2013-06-26 18:06:00,
2013-06-26 11:11:00,76.0,66.3,30.03,West,270,2.9,5.4,72,0.00,,,0.00,WUHU216HW,2013-06-26 18:11:00,
2013-06-26 11:16:00,76.1,66.1,30.03,NW,315,4.7,6.5,71,0.00,,,0.00,WUHU216HW,2013-06-26 18:16:00,
2013-06-26 11:21:00,76.3,66.2,30.03,West,270,4.9,6.5,71,0.00,,,0.00,WUHU216HW,2013-06-26 18:21:00,
2013-06-26 11:26:00,76.3,65.4,30.03,West,270,6.3,6.3,69,0.00,,,0.00,WUHU216HW,2013-06-26 18:26:00,
2013-06-26 11:31:00,76.5,65.6,30.03,WSW,248,4.5,6.3,69,0.00,,,0.00,WUHU216HW,2013-06-26 18:31:00,
2013-06-26 11:36:00,76.7,65.8,30.03,WNW,293,4.7,6.3,69,0.00,,,0.00,WUHU216HW,2013-06-26 18:36:00,
2013-06-26 11:41:00,76.9,65.5,30.03,West,270,3.1,5.1,68,0.00,,,0.00,WUHU216HW,2013-06-26 18:41:00,
2013-06-26 11:46:00,77.0,66.2,30.03,West,270,4.0,4.7,69,0.00,,,0.00,WUHU216HW,2013-06-26 18:46:00,
2013-06-26 11:51:00,77.4,66.1,30.02,WSW,248,3.4,4.0,68,0.00,,,0.00,WUHU216HW,2013-06-26 18:51:00,
2013-06-26 11:56:00,77.9,66.1,30.03,WSW,248,4.3,4.3,67,0.00,,,0.00,WUHU216HW,2013-06-26 18:56:00,
2013-06-26 12:01:00,78.1,66.2,30.03,West,270,6.0,6.0,67,0.00,,,0.00,WUHU216HW,2013-06-26 19:01:00,
2013-06-26 12:06:00,78.5,66.2,30.03,NNW,338,4.7,6.0,66,0.00,,,0.00,WUHU216HW,2013-06-26 19:06:00,
2013-06-26 12:11:00,78.8,66.1,30.03,WSW,248,2.0,6.0,65,0.00,,,0.00,WUHU216HW,2013-06-26 19:11:00,
2013-06-26 12:16:00,79.2,66.9,30.03,SW,225,3.8,3.8,66,0.00,,,0.00,WUHU216HW,2013-06-26 19:16:00,
2013-06-26 12:21:00,79.4,66.6,30.03,West,270,5.4,5.4,65,0.00,,,0.00,WUHU216HW,2013-06-26 19:21:00,
2013-06-26 12:26:00,79.6,66.3,30.03,West,270,4.3,5.4,64,0.00,,,0.00,WUHU216HW,2013-06-26 19:26:00,
2013-06-26 12:31:00,79.4,65.3,30.03,West,270,3.4,6.3,62,0.00,,,0.00,WUHU216HW,2013-06-26 19:31:00,
2013-06-26 12:36:00,79.7,66.1,30.03,West,270,5.8,6.3,63,0.00,,,0.00,WUHU216HW,2013-06-26 19:36:00,
2013-06-26 12:41:00,80.1,65.9,30.03,WNW,293,3.6,5.8,62,0.00,,,0.00,WUHU216HW,2013-06-26 19:41:00,
2013-06-26 12:46:00,80.1,65.5,30.03,SW,225,2.9,5.8,61,0.00,,,0.00,WUHU216HW,2013-06-26 19:46:00,
2013-06-26 12:51:00,80.3,65.6,30.03,WSW,248,4.7,4.7,61,0.00,,,0.00,WUHU216HW,2013-06-26 19:51:00,
2013-06-26 12:56:00,80.5,65.8,30.03,West,270,6.9,6.9,61,0.00,,,0.00,WUHU216HW,2013-06-26 19:56:00,
2013-06-26 13:01:00,80.5,65.3,30.03,West,270,6.3,6.9,60,0.00,,,0.00,WUHU216HW,2013-06-26 20:01:00,
2013-06-26 13:06:00,80.5,64.8,30.03,WSW,248,5.8,6.7,59,0.00,,,0.00,WUHU216HW,2013-06-26 20:06:00,
2013-06-26 13:11:00,80.5,64.8,30.03,WNW,293,6.7,6.7,59,0.00,,,0.00,WUHU216HW,2013-06-26 20:11:00,
2013-06-26 13:16:00,80.8,65.2,30.02,West,270,6.9,7.2,59,0.00,,,0.00,WUHU216HW,2013-06-26 20:16:00,
2013-06-26 13:21:00,81.0,65.4,30.02,WNW,293,7.2,7.2,59,0.00,,,0.00,WUHU216HW,2013-06-26 20:21:00,
2013-06-26 13:26:00,81.4,65.2,30.02,NW,315,4.7,7.2,58,0.00,,,0.00,WUHU216HW,2013-06-26 20:26:00,
2013-06-26 13:31:00,81.4,65.2,30.02,NW,315,5.4,7.2,58,0.00,,,0.00,WUHU216HW,2013-06-26 20:31:00,
2013-06-26 13:36:00,81.7,65.4,30.01,WSW,248,5.4,6.9,58,0.00,,,0.00,WUHU216HW,2013-06-26 20:36:00,
2013-06-26 13:41:00,81.9,65.1,30.01,WNW,293,4.0,6.9,57,0.00,,,0.00,WUHU216HW,2013-06-26 20:41:00,
2013-06-26 13:46:00,82.1,65.3,30.01,WNW,293,4.0,9.4,57,0.00,,,0.00,WUHU216HW,2013-06-26 20:46:00,
2013-06-26 13:51:00,82.1,65.3,30.01,WSW,248,4.9,9.4,57,0.00,,,0.00,WUHU216HW,2013-06-26 20:51:00,
2013-06-26 13:56:00,82.1,65.3,30.01,NW,315,4.7,4.9,57,0.00,,,0.00,WUHU216HW,2013-06-26 20:56:00,
2013-06-26 14:01:00,82.1,65.3,30.01,West,270,5.8,5.8,57,0.00,,,0.00,WUHU216HW,2013-06-26 21:01:00,
2013-06-26 14:06:00,82.1,65.3,30.01,West,270,7.2,11.4,57,0.00,,,0.00,WUHU216HW,2013-06-26 21:06:00,
2013-06-26 14:11:00,82.1,65.3,30.01,WNW,293,4.5,11.4,57,0.00,,,0.00,WUHU216HW,2013-06-26 21:11:00,
2013-06-26 14:16:00,82.1,65.3,30.01,West,270,2.9,7.8,57,0.00,,,0.00,WUHU216HW,2013-06-26 21:16:00,
2013-06-26 14:21:00,82.4,65.6,30.01,West,270,8.9,8.9,57,0.00,,,0.00,WUHU216HW,2013-06-26 21:21:00,
2013-06-26 14:26:00,82.6,65.8,30.01,WNW,293,6.3,8.9,57,0.00,,,0.00,WUHU216HW,2013-06-26 21:26:00,
2013-06-26 14:32:00,82.4,65.6,30.01,West,270,7.8,8.9,57,0.00,,,0.00,WUHU216HW,2013-06-26 21:32:00,
2013-06-26 14:37:00,82.6,66.2,30.01,WSW,248,6.9,7.8,58,0.00,,,0.00,WUHU216HW,2013-06-26 21:37:00,
2013-06-26 14:42:00,82.8,66.0,30.01,SW,225,6.0,7.8,57,0.00,,,0.00,WUHU216HW,2013-06-26 21:42:00,
2013-06-26 14:47:00,83.2,66.3,30.01,West,270,8.1,8.1,57,0.00,,,0.00,WUHU216HW,2013-06-26 21:47:00,
2013-06-26 14:52:00,83.5,66.7,30.01,WSW,248,9.2,9.2,57,0.00,,,0.00,WUHU216HW,2013-06-26 21:52:00,
2013-06-26 14:57:00,83.9,67.1,30.00,WSW,248,4.9,9.2,57,0.00,,,0.00,WUHU216HW,2013-06-26 21:57:00,
2013-06-26 15:02:00,84.1,66.7,30.00,WNW,293,6.0,8.9,56,0.00,,,0.00,WUHU216HW,2013-06-26 22:02:00,
2013-06-26 15:07:00,84.2,66.9,30.00,WNW,293,6.3,7.6,56,0.00,,,0.00,WUHU216HW,2013-06-26 22:07:00,
2013-06-26 15:12:00,84.4,66.5,30.00,SW,225,6.9,7.6,55,0.00,,,0.00,WUHU216HW,2013-06-26 22:12:00,
2013-06-26 15:17:00,84.4,66.5,30.00,SW,225,6.9,6.9,55,0.00,,,0.00,WUHU216HW,2013-06-26 22:17:00,
2013-06-26 15:22:00,84.2,66.3,30.00,West,270,11.9,11.9,55,0.00,,,0.00,WUHU216HW,2013-06-26 22:22:00,
2013-06-26 15:27:00,84.2,66.3,30.00,WSW,248,6.0,11.9,55,0.00,,,0.00,WUHU216HW,2013-06-26 22:27:00,
2013-06-26 15:32:00,84.1,65.6,29.99,WSW,248,3.4,11.9,54,0.00,,,0.00,WUHU216HW,2013-06-26 22:32:00,
2013-06-26 15:37:00,84.1,65.6,30.00,West,270,8.1,8.1,54,0.00,,,0.00,WUHU216HW,2013-06-26 22:37:00,
2013-06-26 15:42:00,84.1,65.6,29.99,West,270,8.1,8.1,54,0.00,,,0.00,WUHU216HW,2013-06-26 22:42:00,
2013-06-26 15:47:00,84.2,65.8,29.99,WNW,293,6.7,8.1,54,0.00,,,0.00,WUHU216HW,2013-06-26 22:47:00,
2013-06-26 15:52:00,84.1,65.1,30.00,West,270,9.2,9.2,53,0.00,,,0.00,WUHU216HW,2013-06-26 22:52:00,
2013-06-26 15:57:00,83.9,64.9,30.00,NW,315,8.9,9.2,53,0.00,,,0.00,WUHU216HW,2013-06-26 22:57:00,
2013-06-26 16:02:00,83.9,64.9,30.00,West,270,4.3,9.2,53,0.00,,,0.00,WUHU216HW,2013-06-26 23:02:00,
2013-06-26 16:07:00,83.9,64.5,30.00,West,270,6.5,8.9,52,0.00,,,0.00,WUHU216HW,2013-06-26 23:07:00,
2013-06-26 16:12:00,83.7,64.3,30.00,West,270,7.4,7.4,52,0.00,,,0.00,WUHU216HW,2013-06-26 23:12:00,
2013-06-26 16:17:00,83.5,64.1,30.00,West,270,5.6,9.2,52,0.00,,,0.00,WUHU216HW,2013-06-26 23:17:00,
2013-06-26 16:22:00,83.3,63.9,30.00,West,270,9.4,9.4,52,0.00,,,0.00,WUHU216HW,2013-06-26 23:22:00,
2013-06-26 16:27:00,83.2,63.7,30.00,West,270,5.6,9.4,52,0.00,,,0.00,WUHU216HW,2013-06-26 23:27:00,
2013-06-26 16:32:00,83.2,63.7,30.00,WSW,248,6.3,9.4,52,0.00,,,0.00,WUHU216HW,2013-06-26 23:32:00,
2013-06-26 16:37:00,83.0,63.6,30.00,WSW,248,6.0,6.3,52,0.00,,,0.00,WUHU216HW,2013-06-26 23:37:00,
2013-06-26 16:42:00,82.8,62.8,30.00,West,270,7.8,7.8,51,0.00,,,0.00,WUHU216HW,2013-06-26 23:42:00,
2013-06-26 16:47:00,82.6,63.2,29.99,WNW,293,6.9,10.7,52,0.00,,,0.00,WUHU216HW,2013-06-26 23:47:00,
2013-06-26 16:52:00,82.4,62.5,29.99,West,270,10.5,10.7,51,0.00,,,0.00,WUHU216HW,2013-06-26 23:52:00,
2013-06-26 16:57:00,82.4,63.0,29.99,West,270,6.7,10.5,52,0.00,,,0.00,WUHU216HW,2013-06-26 23:57:00,
2013-06-26 17:02:00,82.4,62.5,29.99,West,270,4.7,13.2,51,0.00,,,0.00,WUHU216HW,2013-06-27 00:02:00,
2013-06-26 17:07:00,82.4,63.0,29.99,West,270,12.1,13.2,52,0.00,,,0.00,WUHU216HW,2013-06-27 00:07:00,
2013-06-26 17:12:00,82.3,62.3,29.99,WSW,248,5.8,12.1,51,0.00,,,0.00,WUHU216HW,2013-06-27 00:12:00,
2013-06-26 17:17:00,82.3,62.8,29.99,NW,315,6.7,12.1,52,0.00,,,0.00,WUHU216HW,2013-06-27 00:17:00,
2013-06-26 17:22:00,82.3,62.8,29.99,West,270,6.0,8.9,52,0.00,,,0.00,WUHU216HW,2013-06-27 00:22:00,
2013-06-26 17:27:00,82.3,62.8,29.99,NW,315,6.7,8.9,52,0.00,,,0.00,WUHU216HW,2013-06-27 00:27:00,
2013-06-26 17:32:00,82.3,62.8,29.99,WNW,293,7.4,7.4,52,0.00,,,0.00,WUHU216HW,2013-06-27 00:32:00,
2013-06-26 17:37:00,82.1,62.6,29.99,West,270,9.8,9.8,52,0.00,,,0.00,WUHU216HW,2013-06-27 00:37:00,
2013-06-26 17:42:00,81.5,62.6,29.99,NW,315,9.2,9.8,53,0.00,,,0.00,WUHU216HW,2013-06-27 00:42:00,
2013-06-26 17:47:00,81.4,62.6,29.99,SSW,203,7.6,9.8,53,0.00,,,0.00,WUHU216HW,2013-06-27 00:47:00,
2013-06-26 17:52:00,81.4,62.6,29.99,West,270,3.1,9.8,53,0.00,,,0.00,WUHU216HW,2013-06-27 00:52:00,
2013-06-26 17:57:00,81.4,62.6,29.99,West,270,7.6,7.6,53,0.00,,,0.00,WUHU216HW,2013-06-27 00:57:00,
2013-06-26 18:02:00,81.0,62.2,29.99,West,270,8.7,9.4,53,0.00,,,0.00,WUHU216HW,2013-06-27 01:02:00,
2013-06-26 18:07:00,80.8,62.6,29.98,WNW,293,8.5,9.4,54,0.00,,,0.00,WUHU216HW,2013-06-27 01:07:00,
2013-06-26 18:12:00,80.6,62.4,29.98,WNW,293,6.7,8.5,54,0.00,,,0.00,WUHU216HW,2013-06-27 01:12:00,
2013-06-26 18:17:00,80.5,62.2,29.98,WNW,293,6.3,8.5,54,0.00,,,0.00,WUHU216HW,2013-06-27 01:17:00,
2013-06-26 18:22:00,79.9,61.7,29.98,West,270,6.7,7.2,54,0.00,,,0.00,WUHU216HW,2013-06-27 01:22:00,
2013-06-26 18:27:00,79.7,61.6,29.98,West,270,4.7,7.2,54,0.00,,,0.00,WUHU216HW,2013-06-27 01:27:00,
2013-06-26 18:32:00,79.7,62.1,29.98,WNW,293,7.6,7.6,55,0.00,,,0.00,WUHU216HW,2013-06-27 01:32:00,
2013-06-26 18:37:00,79.6,61.4,29.98,NW,315,7.2,7.6,54,0.00,,,0.00,WUHU216HW,2013-06-27 01:37:00,
2013-06-26 18:42:00,79.4,61.7,29.99,NW,315,8.9,8.9,55,0.00,,,0.00,WUHU216HW,2013-06-27 01:42:00,
2013-06-26 18:47:00,79.2,61.7,29.99,West,270,12.5,12.5,55,0.00,,,0.00,WUHU216HW,2013-06-27 01:47:00,
2013-06-26 18:52:00,79.0,61.5,29.99,WNW,293,8.5,12.5,55,0.00,,,0.00,WUHU216HW,2013-06-27 01:52:00,
2013-06-26 18:57:00,78.8,61.3,29.99,NW,315,6.3,12.5,55,0.00,,,0.00,WUHU216HW,2013-06-27 01:57:00,
2013-06-26 19:02:00,78.7,61.1,29.99,WNW,293,9.8,9.8,55,0.00,,,0.00,WUHU216HW,2013-06-27 02:02:00,
2013-06-26 19:07:00,78.3,60.8,29.99,WNW,293,6.0,9.8,55,0.00,,,0.00,WUHU216HW,2013-06-27 02:07:00,
2013-06-26 19:12:00,78.3,60.8,29.99,West,270,10.1,10.1,55,0.00,,,0.00,WUHU216HW,2013-06-27 02:12:00,
2013-06-26 19:17:00,78.3,61.3,29.99,West,270,7.6,10.1,56,0.00,,,0.00,WUHU216HW,2013-06-27 02:17:00,
2013-06-26 19:22:00,78.1,61.1,29.99,West,270,6.9,10.1,56,0.00,,,0.00,WUHU216HW,2013-06-27 02:22:00,
2013-06-26 19:27:00,78.1,61.1,29.99,West,270,6.3,9.6,56,0.00,,,0.00,WUHU216HW,2013-06-27 02:27:00,
2013-06-26 19:32:00,77.9,60.9,29.99,WSW,248,4.9,9.6,56,0.00,,,0.00,WUHU216HW,2013-06-27 02:32:00,
2013-06-26 19:37:00,77.8,61.3,29.99,West,270,5.1,6.0,57,0.00,,,0.00,WUHU216HW,2013-06-27 02:37:00,
2013-06-26 19:42:00,77.9,61.5,29.99,NW,315,7.8,7.8,57,0.00,,,0.00,WUHU216HW,2013-06-27 02:42:00,
2013-06-26 19:47:00,77.8,61.3,29.99,West,270,5.4,7.8,57,0.00,,,0.00,WUHU216HW,2013-06-27 02:47:00,
2013-06-26 19:52:00,77.6,61.1,29.99,WSW,248,2.9,6.0,57,0.00,,,0.00,WUHU216HW,2013-06-27 02:52:00,
2013-06-26 19:57:00,77.4,60.9,29.99,West,270,4.7,6.0,57,0.00,,,0.00,WUHU216HW,2013-06-27 02:57:00,
2013-06-26 20:02:00,77.4,60.9,29.99,West,270,3.4,6.5,57,0.00,,,0.00,WUHU216HW,2013-06-27 03:02:00,
2013-06-26 20:07:00,77.2,61.3,29.99,WNW,293,2.7,6.5,58,0.00,,,0.00,WUHU216HW,2013-06-27 03:07:00,
2013-06-26 20:12:00,76.9,60.9,29.99,West,270,7.6,9.2,58,0.00,,,0.00,WUHU216HW,2013-06-27 03:12:00,
2013-06-26 20:17:00,76.5,61.1,29.99,WNW,293,5.6,9.2,59,0.00,,,0.00,WUHU216HW,2013-06-27 03:17:00,
2013-06-26 20:22:00,76.0,61.1,29.99,WSW,248,2.5,7.6,60,0.00,,,0.00,WUHU216HW,2013-06-27 03:22:00,
2013-06-26 20:27:00,76.0,61.1,30.00,WSW,248,1.8,5.6,60,0.00,,,0.00,WUHU216HW,2013-06-27 03:27:00,
2013-06-26 20:32:00,76.0,61.1,30.00,WNW,293,4.0,5.4,60,0.00,,,0.00,WUHU216HW,2013-06-27 03:32:00,
2013-06-26 20:37:00,76.0,61.1,30.00,WSW,248,1.6,4.0,60,0.00,,,0.00,WUHU216HW,2013-06-27 03:37:00,
2013-06-26 20:42:00,76.0,61.1,30.00,North,0,4.0,4.0,60,0.00,,,0.00,WUHU216HW,2013-06-27 03:42:00,
2013-06-26 20:47:00,75.6,61.2,30.00,West,270,4.7,4.7,61,0.00,,,0.00,WUHU216HW,2013-06-27 03:47:00,
2013-06-26 20:52:00,75.2,61.4,30.01,West,270,6.9,6.9,62,0.00,,,0.00,WUHU216HW,2013-06-27 03:52:00,
2013-06-26 20:57:00,74.5,61.1,30.01,West,270,6.3,7.2,63,0.00,,,0.00,WUHU216HW,2013-06-27 03:57:00,
2013-06-26 21:02:00,74.2,60.8,30.01,SW,225,3.4,7.2,63,0.00,,,0.00,WUHU216HW,2013-06-27 04:02:00,
2013-06-26 21:07:00,73.8,60.9,30.01,West,270,5.8,6.3,64,0.00,,,0.00,WUHU216HW,2013-06-27 04:07:00,
2013-06-26 21:12:00,73.6,61.1,30.01,WNW,293,5.8,5.8,65,0.00,,,0.00,WUHU216HW,2013-06-27 04:12:00,
2013-06-26 21:17:00,73.3,61.2,30.01,West,270,4.7,5.8,66,0.00,,,0.00,WUHU216HW,2013-06-27 04:17:00,
2013-06-26 21:22:00,72.9,60.8,30.01,West,270,2.5,5.8,66,0.00,,,0.00,WUHU216HW,2013-06-27 04:22:00,
2013-06-26 21:27:00,72.7,61.1,30.02,West,270,4.0,5.6,67,0.00,,,0.00,WUHU216HW,2013-06-27 04:27:00,
2013-06-26 21:32:00,72.5,60.9,30.02,West,270,3.8,4.0,67,0.00,,,0.00,WUHU216HW,2013-06-27 04:32:00,
2013-06-26 21:37:00,72.5,60.9,30.02,West,270,3.4,4.0,67,0.00,,,0.00,WUHU216HW,2013-06-27 04:37:00,
2013-06-26 21:42:00,72.5,60.9,30.02,West,270,1.1,3.4,67,0.00,,,0.00,WUHU216HW,2013-06-27 04:42:00,
2013-06-26 21:47:00,72.4,61.2,30.02,West,270,2.5,3.4,68,0.00,,,0.00,WUHU216HW,2013-06-27 04:47:00,
2013-06-26 21:52:00,72.2,61.0,30.03,WSW,248,4.0,4.0,68,0.00,,,0.00,WUHU216HW,2013-06-27 04:52:00,
2013-06-26 21:57:00,71.8,61.1,30.03,West,270,5.4,5.4,69,0.00,,,0.00,WUHU216HW,2013-06-27 04:57:00,
2013-06-26 22:02:00,71.8,61.1,30.03,West,270,3.6,5.4,69,0.00,,,0.00,WUHU216HW,2013-06-27 05:02:00,
2013-06-26 22:07:00,71.8,61.1,30.03,NW,315,3.8,5.4,69,0.00,,,0.00,WUHU216HW,2013-06-27 05:07:00,
2013-06-26 22:12:00,71.8,61.1,30.03,West,270,3.8,4.7,69,0.00,,,0.00,WUHU216HW,2013-06-27 05:12:00,
2013-06-26 22:17:00,71.6,60.9,30.03,West,270,2.2,4.7,69,0.00,,,0.00,WUHU216HW,2013-06-27 05:17:00,
2013-06-26 22:22:00,71.6,60.9,30.03,West,270,3.4,4.5,69,0.00,,,0.00,WUHU216HW,2013-06-27 05:22:00,
2013-06-26 22:27:00,71.6,60.5,30.03,West,270,6.3,6.3,68,0.00,,,0.00,WUHU216HW,2013-06-27 05:27:00,
2013-06-26 22:32:00,71.3,60.1,30.03,West,270,3.4,6.3,68,0.00,,,0.00,WUHU216HW,2013-06-27 05:32:00,
2013-06-26 22:37:00,71.3,60.1,30.04,West,270,3.1,6.3,68,0.00,,,0.00,WUHU216HW,2013-06-27 05:37:00,
2013-06-26 22:42:00,71.1,60.0,30.04,SW,225,4.7,4.7,68,0.00,,,0.00,WUHU216HW,2013-06-27 05:42:00,
2013-06-26 22:47:00,71.1,60.4,30.04,NNW,338,2.2,4.7,69,0.00,,,0.00,WUHU216HW,2013-06-27 05:47:00,
2013-06-26 22:52:00,70.9,60.2,30.04,WSW,248,0.4,4.7,69,0.00,,,0.00,WUHU216HW,2013-06-27 05:52:00,
2013-06-26 22:57:00,70.9,60.2,30.04,WSW,248,1.6,2.2,69,0.00,,,0.00,WUHU216HW,2013-06-27 05:57:00,
2013-06-26 23:02:00,71.1,60.4,30.04,West,270,1.8,2.5,69,0.00,,,0.00,WUHU216HW,2013-06-27 06:02:00,
2013-06-26 23:07:00,71.1,60.4,30.04,West,270,1.1,2.5,69,0.00,,,0.00,WUHU216HW,2013-06-27 06:07:00,
2013-06-26 23:12:00,71.1,60.4,30.04,West,270,1.6,1.8,69,0.00,,,0.00,WUHU216HW,2013-06-27 06:12:00,
2013-06-26 23:17:00,71.1,60.4,30.04,WNW,293,2.2,2.2,69,0.00,,,0.00,WUHU216HW,2013-06-27 06:17:00,
2013-06-26 23:22:00,70.9,60.2,30.04,SW,225,4.0,4.0,69,0.00,,,0.00,WUHU216HW,2013-06-27 06:22:00,
2013-06-26 23:27:00,70.9,60.2,30.04,SW,225,1.6,4.0,69,0.00,,,0.00,WUHU216HW,2013-06-27 06:27:00,
2013-06-26 23:32:00,70.9,60.2,30.05,WNW,293,1.1,4.0,69,0.00,,,0.00,WUHU216HW,2013-06-27 06:32:00,
2013-06-26 23:37:00,70.9,60.2,30.04,SW,225,3.1,3.4,69,0.00,,,0.00,WUHU216HW,2013-06-27 06:37:00,
2013-06-26 23:42:00,70.9,60.2,30.04,SW,225,0.4,3.4,69,0.00,,,0.00,WUHU216HW,2013-06-27 06:42:00,
2013-06-26 23:47:00,70.9,60.2,30.04,WNW,293,2.0,3.4,69,0.00,,,0.00,WUHU216HW,2013-06-27 06:47:00,
2013-06-26 23:52:00,70.9,60.2,30.05,WSW,248,2.0,2.5,69,0.00,,,0.00,WUHU216HW,2013-06-27 06:52:00,
2013-06-26 23:57:00,70.9,60.2,30.05,West,270,1.8,2.5,69,0.00,,,0.00,WUHU216HW,2013-06-27 06:57:00,